"Pseudo-MPEC" for P11CrrN

Created 2022 Dec 22 22:22:17 UT using Find_Orb

Click here for an explanation of pseudo-MPECs

 
 Astrometry: 
     P11CrrN* C2022 12 02kqB.@wXHv9b!+pt7!'Q2eGAstrometry8frfNc8qCFg=xmvFD5bEF51
     P11CrrN  C2022 12 02A2@9#AtU-`yNeUkWredacted;5XmRV:NV^d^_+$x.yclickM=`gtF51
     P11CrrN* C2022 12 02_mHJ:\(O:O[pD0L\NDhere@g)x?8Ql/7Y)vMR!)F]2uw;VG9@MvHF51
     P11CrrN  C2022 12 02Kp5UoUGFGV^[`4.l578L#g#sCJfQfW3f\13(2C@m)/UuDG3K$NwxF51
     P11CrrN  C2022 12 02Sp^Zfor\;m8'O#:26^,)A;9q:`^ed_m7FexplanationZ-+:Cb6(F51

Station data:
(F51) Pan-STARRS 1, Haleakala  (N20.707234 W156.255910)  US/Hawaii.
   Observers J. Bulger, T. Lowe, A. Schultz, M. Willman. Measurers K.
   Chambers, S. Chastel, T. de Boer, L. Denneau, J. Fairlamb, H. Flewelling,
   M. Huber, C.-C. Lin, E. Magnier, Y. Ramanjooloo, R. Wainscoat, R. Weryk.
   1.8-m Ritchey-Chrétien + CCD.

Orbital elements:  P11CrrN
   Perihelion 2022 Nov 11.77620 +/- 62.6 TT = 18:37:43 (JD 2459895.27620)
Epoch 2022 Dec  3.0 TT = JDT 2459916.5   Earth MOID: 0.5967      AutoNEOCP
M   8.25689170 +/- 53               (J2000 ecliptic)
n   0.38903918 +/- 0.433            Peri.   47.22290 +/- 90
a   1.85840551 +/- 1.38             Node    37.93318 +/- 60
e   0.1752678 +/- 0.25              Incl.   26.45747 +/- 21
P   2.53/925.34d           H 19.36  G  0.15   U 12.2  SR
q 1.53268670 +/- 0.546    Q 2.18412432 +/- 26.5
From 5 observations 2022 Dec. 2 (59.7 min); mean residual 0".02
Residuals in arcseconds: 
221202 F51  .01+  .01+    221202 F51  .01+  .01-    221202 F51  .02+  .01-    
221202 F51  .05-  .01-    221202 F51  .01+  .02+    

Ephemerides (geocentric):
Date (UTC) HH   RA             Dec           delta  r     elong  mag " sig PA
---- --------  ------------   ------------  ------ ------ -----  --- --------
2022 12 22 22  11 11 40.150   +62 37 25.89  .83747 1.5510 116.6 21.4  51d  59
2022 12 22 23  11 11 45.930   +62 38 09.41  .83742 1.5511 116.6 21.4  51d  59
2022 12 23 00  11 11 51.704   +62 38 52.92  .83736 1.5511 116.6 21.4  51d  59
2022 12 23 01  11 11 57.470   +62 39 36.42  .83731 1.5512 116.6 21.4  51d  59
2022 12 23 02  11 12 03.229   +62 40 19.91  .83726 1.5512 116.6 21.4  51d  59
2022 12 23 03  11 12 08.980   +62 41 03.39  .83720 1.5512 116.6 21.4  51d  59
2022 12 23 04  11 12 14.724   +62 41 46.87  .83715 1.5513 116.6 21.4  51d  59
2022 12 23 05  11 12 20.461   +62 42 30.33  .83710 1.5513 116.6 21.4  51d  59
2022 12 23 06  11 12 26.191   +62 43 13.78  .83705 1.5513 116.6 21.4  51d  59
2022 12 23 07  11 12 31.913   +62 43 57.23  .83699 1.5514 116.6 21.4  51d  59
2022 12 23 08  11 12 37.627   +62 44 40.67  .83694 1.5514 116.7 21.4  51d  59
2022 12 23 09  11 12 43.335   +62 45 24.09  .83689 1.5514 116.7 21.4  51d  59
2022 12 23 10  11 12 49.035   +62 46 07.51  .83684 1.5515 116.7 21.4  51d  59
2022 12 23 11  11 12 54.727   +62 46 50.92  .83678 1.5515 116.7 21.4  51d  59
2022 12 23 12  11 13 00.412   +62 47 34.32  .83673 1.5516 116.7 21.4  51d  59
2022 12 23 13  11 13 06.090   +62 48 17.71  .83668 1.5516 116.7 21.4  51d  59
2022 12 23 14  11 13 11.760   +62 49 01.09  .83663 1.5516 116.7 21.4  51d  59
2022 12 23 15  11 13 17.422   +62 49 44.46  .83658 1.5517 116.7 21.4  51d  59
2022 12 23 16  11 13 23.077   +62 50 27.82  .83652 1.5517 116.7 21.4  51d  59
2022 12 23 17  11 13 28.725   +62 51 11.17  .83647 1.5517 116.7 21.4  51d  59
2022 12 23 18  11 13 34.365   +62 51 54.51  .83642 1.5518 116.8 21.4  51d  59
2022 12 23 19  11 13 39.998   +62 52 37.85  .83637 1.5518 116.8 21.4  51d  59
2022 12 23 20  11 13 45.623   +62 53 21.17  .83632 1.5519 116.8 21.4  51d  59
2022 12 23 21  11 13 51.240   +62 54 04.48  .83627 1.5519 116.8 21.4  51d  59
2022 12 23 22  11 13 56.850   +62 54 47.79  .83622 1.5519 116.8 21.4  51d  59
2022 12 23 23  11 14 02.453   +62 55 31.08  .83617 1.5520 116.8 21.4  51d  59
2022 12 24 00  11 14 08.047   +62 56 14.37  .83612 1.5520 116.8 21.4  51d  59
2022 12 24 01  11 14 13.635   +62 56 57.65  .83607 1.5520 116.8 21.4  51d  59
2022 12 24 02  11 14 19.214   +62 57 40.91  .83602 1.5521 116.8 21.4  51d  59
2022 12 24 03  11 14 24.786   +62 58 24.17  .83597 1.5521 116.8 21.4  51d  59
2022 12 24 04  11 14 30.350   +62 59 07.42  .83592 1.5522 116.9 21.4  51d  59
2022 12 24 05  11 14 35.907   +62 59 50.65  .83587 1.5522 116.9 21.4  51d  59
2022 12 24 06  11 14 41.456   +63 00 33.88  .83582 1.5522 116.9 21.4  51d  59
2022 12 24 07  11 14 46.997   +63 01 17.10  .83577 1.5523 116.9 21.4  51d  59
2022 12 24 08  11 14 52.531   +63 02 00.31  .83572 1.5523 116.9 21.4  51d  59
2022 12 24 09  11 14 58.057   +63 02 43.51  .83567 1.5523 116.9 21.4  51d  59
2022 12 24 10  11 15 03.575   +63 03 26.70  .83562 1.5524 116.9 21.4  51d  59
2022 12 24 11  11 15 09.086   +63 04 09.87  .83557 1.5524 116.9 21.4  51d  59
2022 12 24 12  11 15 14.588   +63 04 53.04  .83552 1.5525 116.9 21.4  51d  59
2022 12 24 13  11 15 20.083   +63 05 36.20  .83547 1.5525 116.9 21.4  51d  59
2022 12 24 14  11 15 25.571   +63 06 19.35  .83543 1.5525 117.0 21.4  51d  59
2022 12 24 15  11 15 31.050   +63 07 02.49  .83538 1.5526 117.0 21.4  51d  59
2022 12 24 16  11 15 36.522   +63 07 45.62  .83533 1.5526 117.0 21.4  51d  60
2022 12 24 17  11 15 41.986   +63 08 28.74  .83528 1.5526 117.0 21.4  52d  60
2022 12 24 18  11 15 47.442   +63 09 11.85  .83523 1.5527 117.0 21.4  52d  60
2022 12 24 19  11 15 52.890   +63 09 54.95  .83518 1.5527 117.0 21.4  52d  60
2022 12 24 20  11 15 58.331   +63 10 38.04  .83514 1.5528 117.0 21.4  52d  60
2022 12 24 21  11 16 03.763   +63 11 21.12  .83509 1.5528 117.0 21.4  52d  60